Temperature
2 2 3 3 3 3 4 4 4 4 4 4 4 5 5 5 5 5 5 5 5 5 5 5 5 5 5 5 5 5 4 4 4 4 4 4 3 3 3 4 3 3 3
2 2 2 2 3 3 3 3 3 4 4 4 4 4 4 4 4 4 5 4 5 5 5 5 5 5 4 4 4 4 4 4 4 4 3 3 3 3 3 3 3 3 3
1 1 1 2 2 2 3 3 3 3 3 3 3 3 4 4 4 4 4 4 4 4 4 4 4 4 4 4 4 4 4 3 3 3 3 3 3 2 2 2 2 2 3
0 0 1 1 1 2 2 2 2 2 3 3 3 3 3 3 3 3 3 3 4 4 4 4 4 4 3 4 3 3 3 3 3 3 2 2 2 2 2 2 2 2 2
-1 -0 -0 0 1 1 1 2 2 2 2 2 2 2 2 2 3 3 3 3 3 3 3 3 3 3 3 3 3 3 3 2 2 2 2 2 2 2 2 2 1 1 2
-1 -1 -1 -0 -0 0 1 1 1 1 1 1 2 2 2 2 2 2 2 2 2 3 3 3 3 3 3 3 2 2 2 2 2 2 2 1 2 2 2 1 1 1 1
-2 -2 -2 -1 -1 -0 -0 -0 0 0 1 1 1 1 1 2 2 2 2 2 2 2 2 2 2 2 2 2 2 2 2 2 2 2 2 2 2 2 1 1 1 1 1
-3 -3 -2 -2 -2 -1 -1 -1 -0 -0 -0 0 0 0 0 1 1 1 1 1 1 1 1 1 2 2 2 2 1 1 1 1 1 1 1 1 1 1 1 1 1 0 0
-3 -3 -3 -3 -2 -2 -2 -1 -1 -1 -1 -1 -0 -0 -0 0 0 0 0 1 1 1 1 1 1 1 1 1 1 1 1 1 1 1 1 1 0 0 0 -0 -0 -0 -0
-4 -4 -3 -3 -3 -2 -2 -2 -2 -2 -1 -1 -1 -1 -1 -1 -0 -0 -0 -0 -0 -0 0 0 0 0 0 0 0 0 0 0 0 0 0 0 0 -0 -0 -0 -0 -1 -1
-4 -4 -4 -3 -3 -3 -3 -2 -2 -2 -2 -2 -2 -1 -1 -1 -1 -1 -1 -1 -1 -1 -1 -1 -1 -0 -0 -0 -0 -0 -0 -0 -0 -0 -0 -1 -1 -1 -1 -1 -1 -1 -1
-5 -4 -4 -4 -4 -3 -3 -3 -3 -3 -3 -2 -2 -2 -2 -2 -2 -1 -1 -1 -2 -1 -1 -1 -1 -1 -1 -1 -1 -1 -1 -1 -1 -1 -1 -1 -1 -1 -1 -1 -1 -2 -2
-5 -5 -5 -4 -4 -4 -4 -4 -3 -3 -3 -3 -3 -3 -3 -3 -2 -2 -2 -2 -2 -2 -2 -2 -2 -2 -2 -2 -2 -2 -1 -1 -1 -1 -1 -2 -2 -2 -2 -2 -2 -2 -2
-5 -5 -5 -5 -5 -4 -4 -4 -4 -4 -4 -4 -4 -4 -3 -3 -3 -3 -3 -3 -3 -3 -3 -3 -3 -3 -2 -2 -2 -2 -2 -2 -2 -2 -2 -2 -2 -2 -2 -3 -3 -3 -3
-6 -6 -6 -5 -5 -5 -5 -5 -5 -5 -5 -5 -4 -4 -4 -4 -4 -4 -4 -3 -3 -3 -3 -3 -3 -3 -3 -3 -3 -3 -3 -3 -3 -3 -3 -3 -3 -3 -3 -3 -3 -3 -3
-7 -6 -6 -6 -6 -6 -6 -5 -5 -5 -5 -5 -5 -5 -5 -4 -4 -4 -4 -4 -4 -4 -3 -3 -3 -3 -3 -3 -3 -3 -3 -3 -3 -3 -3 -4 -4 -4 -4 -4 -4 -4 -4
-7 -7 -7 -7 -7 -7 -6 -6 -6 -6 -5 -5 -5 -5 -5 -5 -5 -5 -4 -4 -4 -4 -4 -4 -4 -4 -4 -4 -4 -4 -4 -4 -4 -4 -4 -4 -4 -4 -4 -4 -4 -4 -4
-8 -7 -7 -7 -7 -7 -7 -7 -7 -7 -6 -6 -5 -5 -5 -5 -5 -5 -5 -5 -4 -4 -4 -4 -4 -4 -4 -5 -4 -4 -5 -5 -4 -4 -5 -5 -5 -4 -5 -5 -5 -5 -5
-8 -8 -8 -8 -8 -7 -7 -7 -7 -7 -7 -7 -6 -6 -6 -6 -6 -5 -5 -5 -5 -5 -5 -5 -5 -5 -5 -5 -5 -5 -5 -5 -5 -5 -5 -5 -5 -5 -5 -5 -5 -5 -5
-8 -8 -8 -8 -8 -8 -8 -8 -8 -8 -7 -7 -7 -7 -7 -7 -6 -6 -6 -5 -5 -5 -5 -5 -5 -5 -5 -5 -5 -5 -5 -5 -5 -5 -5 -5 -5 -5 -5 -5 -5 -6 -6
-9 -9 -9 -8 -8 -8 -8 -8 -8 -8 -8 -8 -7 -7 -7 -7 -7 -6 -6 -6 -5 -5 -5 -5 -5 -5 -5 -5 -5 -5 -5 -5 -5 -5 -5 -5 -6 -6 -6 -6 -6 -6 -6
-9 -9 -9 -9 -9 -9 -9 -9 -8 -8 -8 -8 -8 -8 -8 -8 -7 -7 -6 -6 -6 -6 -6 -6 -6 -5 -5 -6 -6 -5 -5 -5 -5 -6 -6 -6 -6 -6 -6 -6 -6 -6 -6
-10 -10 -9 -9 -9 -9 -9 -9 -9 -9 -9 -8 -8 -8 -8 -8 -8 -7 -7 -7 -6 -6 -6 -6 -6 -6 -6 -6 -6 -6 -6 -6 -6 -6 -6 -6 -6 -6 -6 -6 -6 -7 -7
-10 -10 -10 -10 -9 -9 -9 -9 -9 -9 -9 -9 -9 -9 -9 -8 -8 -8 -7 -7 -7 -7 -7 -7 -7 -7 -6 -6 -6 -6 -6 -6 -6 -6 -6 -6 -6 -6 -6 -7 -7 -7 -7
-10 -10 -10 -10 -10 -10 -10 -10 -10 -10 -10 -9 -9 -9 -9 -9 -8 -8 -8 -8 -7 -7 -7 -7 -7 -7 -7 -7 -6 -6 -6 -6 -6 -6 -6 -6 -6 -6 -7 -7 -7 -7 -8
-11 -11 -10 -10 -10 -10 -10 -10 -10 -10 -10 -10 -10 -9 -9 -9 -9 -9 -8 -8 -8 -7 -7 -7 -7 -7 -7 -7 -7 -7 -7 -6 -6 -6 -7 -7 -7 -7 -7 -7 -8 -8 -8
Wind_Speed
5 5 5 4 4 3 3 3 3 3 3 3 3 3 4 4 4 4 4 5 5 5 4 6 6 5 4 4 4 3 3 3 4 3 1 1 1 1 2 2 3 3 3
5 5 5 4 3 3 3 3 2 2 3 3 3 3 3 4 4 5 5 5 6 7 6 5 6 5 5 4 4 4 4 3 4 4 2 1 2 2 1 1 2 3 3
5 4 4 4 4 4 3 3 2 2 2 2 2 3 4 4 4 5 5 5 6 6 6 6 6 7 6 5 5 5 4 3 3 4 3 2 1 2 1 1 1 2 3
5 4 4 4 4 4 3 3 2 2 2 2 3 3 3 3 4 4 4 4 4 5 5 5 6 7 8 7 6 6 5 4 4 4 3 2 2 2 2 1 1 1 2
4 4 5 5 4 4 3 3 2 2 3 3 3 3 3 3 4 4 4 4 4 4 4 4 5 6 7 7 6 6 6 5 5 4 4 3 2 3 3 3 3 1 2
5 5 5 5 5 4 3 3 3 2 2 2 3 3 3 3 5 6 4 4 4 4 4 4 4 4 5 7 8 8 8 7 7 6 4 5 5 4 3 3 2 1 3
5 5 5 5 5 5 4 3 3 2 2 2 3 3 4 4 6 6 6 4 4 4 4 4 3 4 4 4 5 6 7 9 9 7 7 7 6 6 5 4 4 3 4
5 5 5 5 5 5 3 3 3 2 2 2 3 3 3 4 6 6 5 3 3 3 4 4 5 4 4 4 5 4 4 5 6 6 6 6 6 5 6 5 4 2 2
5 5 5 5 5 4 4 3 3 3 3 3 3 3 3 4 5 5 4 2 3 3 3 4 4 5 6 6 4 4 3 3 3 4 5 5 6 7 6 3 3 2 3
5 5 6 5 5 4 4 3 3 3 3 3 3 3 3 4 5 5 4 3 3 3 2 3 5 6 7 6 4 5 5 4 3 3 2 2 3 4 6 5 5 4 2
6 5 5 5 5 4 3 3 2 3 2 2 3 3 2 3 4 5 6 4 4 4 3 3 3 6 6 6 5 4 6 5 4 4 3 2 2 2 2 3 3 4 3
5 5 5 5 4 3 2 3 2 2 2 2 2 2 2 2 3 4 6 6 4 4 4 3 3 5 5 5 4 5 6 4 3 4 3 3 3 2 1 1 2 2 2
5 5 5 5 4 3 2 3 2 1 2 2 2 2 2 2 2 4 5 5 5 4 3 4 4 4 4 3 4 5 4 3 4 4 4 4 3 2 2 2 2 2 2
5 5 5 4 3 3 2 2 2 2 2 3 3 3 3 3 2 2 2 3 4 3 3 4 4 3 3 3 3 3 2 3 4 4 4 3 2 2 2 2 2 1 1
5 5 5 4 3 3 3 2 3 4 5 5 4 4 4 4 5 5 4 3 3 3 3 2 2 2 2 2 2 2 2 2 3 3 4 3 3 3 2 1 1 1 2
5 5 4 3 3 3 3 4 4 4 7 7 7 6 5 6 7 7 6 6 6 6 4 4 4 4 4 4 4 3 3 3 3 4 4 4 4 4 3 2 2 2 3
5 5 4 4 3 3 3 2 4 5 6 5 5 5 6 6 6 6 5 5 6 6 4 4 4 4 4 4 4 4 4 4 3 4 4 4 4 4 3 3 3 2 3
4 5 4 3 3 3 3 3 2 3 4 4 5 5 5 5 5 4 4 3 3 3 3 4 5 5 4 4 4 4 4 4 4 4 4 4 4 4 4 4 4 4 3
4 3 3 3 3 3 2 2 2 3 3 4 4 4 5 4 4 4 3 2 3 3 3 4 4 4 4 4 4 4 5 5 4 4 5 5 5 5 4 4 4 5 4
4 5 4 3 3 2 2 2 2 2 3 3 3 3 3 3 2 2 2 2 2 3 3 4 4 4 4 4 5 5 5 5 5 5 5 5 5 5 5 5 5 4 4
3 4 5 3 2 2 2 2 2 2 3 3 4 4 4 3 3 3 2 2 2 3 3 3 4 4 4 4 4 5 6 5 5 5 5 5 5 5 5 5 5 5 4
3 3 3 3 3 3 2 2 2 3 3 4 4 4 5 3 2 2 2 2 2 2 2 3 3 3 4 5 5 5 5 6 6 6 5 5 5 5 5 5 5 4 4
3 3 3 3 3 3 3 2 2 3 3 3 3 3 3 3 3 3 3 3 2 2 2 2 2 3 3 5 6 6 6 7 6 6 6 6 5 5 5 5 6 5 5
3 3 3 3 3 3 2 3 3 3 3 3 3 3 3 3 3 3 3 3 2 2 1 2 2 3 4 4 5 6 6 7 7 7 8 7 6 5 5 5 5 6 5
3 3 3 3 3 3 3 3 3 3 3 3 3 3 3 3 3 3 3 3 2 2 2 2 2 3 4 4 4 5 6 7 8 7 8 7 6 6 6 5 5 5 4
3 3 3 3 3 3 3 3 3 3 3 3 3 3 3 3 3 3 3 3 3 2 2 2 3 3 4 4 4 4 5 6 7 7 6 6 5 5 5 5 5 5 5
Wind_Direction
320 312 304 291 286 268 245 240 237 233 218 215 217 219 213 213 209 205 207 201 201 209 210 202 204 195 194 195 189 189 190 184 220 253 249 228 199 225 262 257 257 252 256
320 318 312 299 292 277 262 253 244 236 229 220 213 216 216 215 211 208 211 210 207 209 211 206 206 199 199 199 195 197 198 198 198 224 241 228 226 219 227 254 267 259 253
323 322 325 320 306 288 275 263 246 238 238 228 213 217 224 222 215 212 209 212 213 211 207 206 208 196 203 201 199 202 202 206 195 196 223 226 233 216 225 274 279 276 266
323 322 320 317 313 307 295 279 261 243 235 231 230 229 229 227 220 213 206 209 212 211 207 208 207 204 202 198 202 202 199 195 187 189 203 211 217 211 191 216 268 288 290
319 319 316 316 316 318 316 298 279 260 249 238 234 233 231 227 222 214 212 209 207 209 209 210 214 214 211 205 206 197 191 194 191 194 201 205 209 199 211 211 230 267 299
311 311 315 318 321 320 316 309 302 279 259 241 237 236 234 240 241 238 228 208 206 204 209 211 211 213 219 216 215 211 204 200 198 201 211 209 216 214 209 207 205 234 272
306 310 315 317 318 317 314 313 302 290 270 255 241 237 236 238 239 238 233 217 206 210 207 206 218 217 220 209 212 215 217 217 215 210 207 215 215 210 198 207 215 229 247
305 307 312 313 313 311 308 303 300 295 284 275 258 243 239 240 239 235 228 212 203 213 210 205 208 213 214 203 195 199 210 219 220 216 213 217 215 202 199 207 215 227 277
306 306 306 304 307 307 307 301 303 297 294 285 272 250 240 241 235 231 223 191 200 221 222 213 207 208 212 207 194 190 199 217 211 197 201 203 206 203 188 172 185 203 258
301 302 300 297 300 294 293 296 299 297 294 295 287 269 250 241 232 227 221 199 199 211 219 221 223 219 212 207 198 189 197 209 182 164 162 171 174 188 194 193 193 198 230
301 301 301 297 296 285 288 292 292 300 301 298 293 289 268 245 232 232 230 211 202 203 210 219 221 218 218 215 213 212 208 194 174 166 165 160 147 165 182 188 190 195 212
301 300 299 300 297 290 286 293 285 279 286 289 288 295 287 266 254 243 234 227 221 215 214 213 214 211 212 215 211 203 199 185 169 169 178 186 188 196 191 158 156 173 210
304 303 301 304 298 283 269 279 289 266 264 273 267 271 286 292 269 255 239 231 228 232 223 208 206 209 213 215 206 199 195 192 181 181 192 201 198 185 153 138 115 94 59
301 302 301 302 297 298 286 275 274 265 258 262 261 261 275 281 270 256 233 229 220 220 210 194 195 202 209 202 202 208 214 202 189 188 185 178 166 169 177 188 201 194 250
301 303 306 304 291 293 295 281 273 265 257 259 253 248 245 256 259 261 256 238 217 203 181 181 194 194 198 205 197 197 202 194 195 185 175 174 177 182 197 197 208 225 231
302 304 303 301 295 294 300 315 311 300 297 289 271 266 266 265 267 262 259 254 234 205 197 199 204 207 207 207 204 204 207 206 197 187 187 189 190 194 203 204 207 217 227
294 297 298 297 293 293 295 300 314 327 325 313 302 287 274 268 265 262 255 246 230 214 213 208 209 211 215 214 210 209 212 209 200 194 195 195 195 197 197 201 204 214 229
299 298 298 289 288 286 287 291 291 298 312 317 313 305 294 282 271 263 252 238 228 226 216 209 210 210 211 214 213 210 208 203 202 201 199 197 198 199 201 206 210 214 223
298 296 292 290 289 285 287 290 292 297 300 308 313 309 308 306 297 277 261 241 224 228 222 215 212 209 210 214 213 209 207 207 206 204 203 201 202 201 207 212 213 215 223
296 303 306 296 291 291 293 292 294 295 298 302 301 301 308 312 297 287 290 268 234 229 225 220 215 209 208 210 210 205 204 206 205 208 207 205 206 205 208 211 211 214 222
302 305 309 302 286 282 281 283 286 285 285 290 295 296 298 295 282 278 279 265 245 237 231 228 221 211 209 210 209 204 204 209 209 207 206 207 206 207 210 210 212 215 217
307 303 298 289 288 285 285 285 286 287 288 289 297 301 303 313 298 290 288 270 258 248 237 232 231 226 214 209 206 205 206 211 210 205 204 206 207 207 206 208 209 211 210
310 306 305 299 291 289 296 295 293 292 292 292 292 299 301 308 308 304 299 283 266 260 245 229 231 233 225 215 211 207 210 213 210 203 201 204 207 208 206 207 208 209 212
312 306 306 305 302 297 295 294 294 294 294 292 293 298 300 302 305 307 307 302 287 273 253 238 232 232 236 232 225 220 217 213 207 202 200 202 206 209 205 203 207 207 209
325 317 313 309 304 301 299 294 291 291 293 296 298 301 305 308 309 311 312 313 305 279 269 257 236 229 232 236 236 233 224 216 213 205 199 198 199 200 197 197 202 203 208
333 326 320 317 313 303 295 292 288 288 290 296 299 302 305 305 305 308 309 308 306 286 265 256 249 246 245 241 240 235 227 214 206 200 191 186 186 190 187 192 191 197 199
Height
1482 1482 1481 1480 1480 1480 1480 1481 1481 1482 1483 1484 1485 1486 1487 1488 1489 1491 1492 1493 1494 1496 1497 1499 1500 1502 1503 1505 1506 1507 1508 1509 1509 1509 1510 1511 1512 1513 1513 1513 1514 1514 1514
1479 1478 1477 1477 1477 1476 1477 1477 1478 1478 1479 1480 1480 1481 1483 1484 1485 1486 1487 1489 1490 1491 1492 1494 1495 1497 1498 1500 1501 1502 1503 1504 1505 1505 1506 1507 1508 1509 1509 1509 1510 1510 1510
1476 1475 1474 1473 1473 1473 1473 1473 1474 1474 1475 1475 1476 1477 1478 1479 1480 1481 1483 1484 1485 1486 1487 1489 1490 1492 1493 1494 1496 1497 1498 1500 1501 1501 1501 1502 1503 1504 1505 1505 1506 1506 1506
1473 1471 1470 1469 1469 1469 1469 1469 1469 1470 1470 1471 1472 1473 1474 1475 1476 1477 1478 1479 1480 1481 1482 1484 1485 1486 1488 1489 1490 1492 1493 1494 1496 1496 1497 1498 1499 1500 1501 1501 1501 1502 1502
1469 1468 1467 1466 1465 1465 1465 1465 1465 1466 1466 1467 1467 1468 1469 1470 1471 1472 1473 1474 1475 1476 1477 1478 1480 1481 1482 1484 1485 1486 1488 1489 1490 1491 1492 1493 1494 1495 1496 1497 1497 1497 1497
1466 1465 1463 1462 1462 1461 1461 1461 1461 1461 1462 1462 1463 1463 1464 1465 1466 1467 1468 1469 1470 1471 1472 1473 1474 1475 1477 1479 1480 1481 1483 1484 1485 1486 1487 1487 1488 1490 1491 1492 1492 1493 1493
1463 1461 1460 1459 1458 1457 1457 1457 1457 1457 1457 1457 1458 1459 1459 1460 1462 1463 1464 1465 1465 1466 1467 1468 1469 1470 1472 1473 1475 1476 1477 1479 1480 1481 1482 1482 1484 1485 1487 1487 1488 1488 1488
1459 1457 1456 1455 1455 1454 1453 1453 1453 1453 1453 1453 1453 1454 1455 1456 1457 1458 1459 1460 1461 1462 1463 1463 1464 1465 1467 1468 1470 1470 1471 1473 1474 1476 1477 1478 1480 1481 1482 1483 1483 1484 1484
1455 1454 1453 1452 1451 1450 1449 1449 1449 1449 1449 1449 1449 1450 1450 1451 1452 1453 1454 1455 1456 1457 1458 1459 1460 1461 1462 1464 1465 1465 1466 1467 1469 1471 1472 1473 1475 1476 1478 1479 1479 1479 1479
1451 1450 1449 1448 1447 1447 1446 1446 1445 1445 1445 1445 1445 1445 1446 1446 1447 1449 1450 1450 1451 1452 1453 1454 1455 1456 1458 1459 1460 1461 1461 1462 1464 1466 1467 1468 1469 1471 1472 1473 1474 1475 1474
1448 1447 1445 1444 1444 1443 1443 1443 1442 1441 1441 1441 1441 1441 1442 1442 1443 1444 1445 1446 1446 1447 1448 1449 1450 1452 1453 1454 1456 1456 1457 1459 1460 1461 1462 1463 1464 1466 1467 1468 1469 1470 1471
1444 1443 1442 1441 1440 1440 1439 1439 1439 1438 1437 1437 1437 1437 1438 1438 1439 1439 1440 1442 1442 1443 1443 1444 1446 1447 1449 1450 1451 1452 1453 1454 1455 1456 1457 1458 1459 1461 1462 1463 1464 1466 1466
1440 1439 1438 1437 1437 1436 1436 1435 1435 1434 1434 1433 1433 1433 1433 1434 1435 1435 1436 1437 1438 1439 1439 1440 1442 1443 1444 1445 1446 1447 1449 1449 1450 1451 1452 1453 1455 1456 1458 1459 1460 1461 1462
1436 1435 1434 1433 1433 1432 1432 1431 1431 1430 1430 1430 1430 1430 1430 1430 1431 1431 1432 1433 1434 1435 1435 1436 1437 1438 1439 1440 1441 1443 1444 1445 1446 1447 1448 1449 1451 1452 1453 1454 1455 1456 1457
1433 1431 1430 1429 1429 1428 1428 1428 1427 1427 1427 1427 1427 1427 1426 1426 1427 1428 1428 1429 1429 1431 1431 1432 1433 1434 1434 1435 1436 1438 1439 1440 1441 1442 1444 1445 1446 1447 1449 1450 1451 1451 1452
1429 1428 1427 1426 1425 1425 1424 1424 1424 1424 1424 1424 1424 1424 1423 1424 1424 1424 1424 1425 1425 1426 1427 1427 1428 1429 1430 1431 1432 1433 1435 1436 1437 1438 1439 1441 1442 1443 1444 1445 1446 1447 1447
1426 1425 1424 1423 1422 1422 1421 1420 1419 1419 1420 1420 1420 1420 1420 1420 1419 1419 1420 1420 1421 1422 1422 1423 1424 1425 1426 1427 1428 1429 1430 1431 1433 1434 1435 1436 1437 1438 1439 1440 1441 1442 1442
1423 1422 1421 1420 1419 1419 1418 1418 1417 1416 1415 1415 1416 1416 1416 1416 1416 1415 1416 1416 1416 1417 1417 1418 1419 1420 1422 1423 1424 1425 1426 1427 1428 1429 1431 1432 1433 1434 1435 1436 1436 1437 1438
1420 1419 1418 1417 1417 1416 1416 1415 1415 1414 1413 1413 1412 1412 1412 1412 1411 1411 1411 1411 1411 1412 1413 1414 1415 1416 1417 1418 1419 1420 1422 1423 1424 1425 1426 1427 1428 1429 1430 1431 1432 1433 1434
1417 1416 1416 1415 1414 1414 1413 1413 1412 1411 1411 1410 1409 1409 1408 1408 1407 1407 1407 1407 1408 1408 1409 1410 1411 1412 1413 1414 1415 1416 1417 1418 1419 1420 1421 1422 1423 1425 1425 1426 1427 1428 1429
1414 1413 1413 1412 1412 1411 1411 1410 1410 1409 1408 1408 1407 1406 1406 1405 1404 1404 1404 1404 1404 1405 1405 1406 1407 1407 1408 1409 1410 1411 1412 1413 1414 1415 1416 1417 1419 1420 1421 1422 1423 1424 1425
1412 1411 1410 1410 1409 1409 1408 1408 1407 1407 1406 1405 1404 1404 1403 1402 1402 1401 1401 1401 1401 1402 1402 1402 1402 1403 1404 1405 1406 1406 1407 1408 1409 1410 1412 1413 1414 1415 1416 1417 1418 1419 1420
1410 1409 1408 1408 1407 1407 1406 1406 1405 1404 1404 1403 1402 1401 1401 1400 1399 1399 1398 1398 1398 1398 1399 1399 1399 1399 1400 1401 1401 1402 1403 1403 1404 1406 1407 1408 1409 1410 1411 1412 1413 1414 1415
1408 1407 1406 1405 1405 1404 1404 1403 1403 1402 1401 1401 1400 1399 1398 1398 1397 1397 1396 1396 1396 1395 1395 1395 1395 1396 1396 1397 1397 1398 1398 1399 1400 1401 1402 1404 1405 1406 1406 1407 1408 1410 1411
1407 1405 1404 1403 1403 1402 1401 1401 1401 1400 1399 1399 1398 1397 1396 1396 1395 1394 1394 1393 1393 1393 1392 1392 1392 1392 1392 1393 1393 1394 1394 1395 1396 1397 1398 1399 1400 1401 1402 1403 1404 1405 1406
1405 1404 1403 1402 1401 1400 1399 1399 1398 1398 1397 1397 1396 1395 1395 1394 1393 1392 1392 1391 1390 1390 1390 1389 1389 1389 1389 1389 1390 1390 1390 1391 1392 1393 1394 1395 1396 1397 1398 1399 1400 1401 1403